#timestamp,LO_Frequency,Hit,StdDev 
1526270435.0,286046998.4,N
1526270435.9,286046998.4,P
1526270455.8,286047001.1,P
1526270475.6,286046998.7,N
1526270495.4,286046998.5,N
1526270515.3,286046998.5,N
1526270535.1,286046999.2,N
1526270555.9,286047000.8,N
1526270575.7,286046998.2,N
1526270595.5,286046998.2,N
1526270615.4,286046998.6,N
1526270635.2,286047001.2,N
1526270655.1,286046998.4,N
1526270656.0,286046998.4,N
1526270675.8,286046998.9,N
1526270695.6,286047000.9,N
1526270715.5,286047001.5,N
1526270735.3,286047002.3,N
1526270755.1,286046999.7,N
1526270775.9,286047001.6,N
1526270795.7,286047002.4,N
1526270815.6,286047000.9,N
1526270835.4,286047001.2,N
1526270855.2,286047001.2,N
1526270875.1,286046998.2,N
1526270876.0,286046998.2,N
1526270895.8,286046998.7,N
1526270915.6,286046998.8,N
1526270935.5,286046999.6,N
1526270955.3,286046998.1,N
1526270975.2,286047001.0,N
1526270995.9,286047000.5,N
1526271015.7,286047000.9,N
1526271035.6,286046999.8,N
1526271055.4,286047002.1,N
1526271075.2,286047002.7,N
1526271095.1,286046999.8,N
1526271096.0,286046999.8,N
1526271115.8,286047002.6,N
1526271135.7,286046999.9,N
1526271155.5,286047004.0,N
1526271175.3,286047001.5,N
1526271195.2,286047002.1,N
1526271215.0,286046999.8,N
1526271215.9,286046999.8,N
1526271235.8,286047002.0,N
1526271255.6,286047001.3,N
1526271275.4,286047002.8,N
1526271295.3,286047003.9,N
1526271315.1,286047003.6,N
1526271335.9,286047001.8,N
1526271355.7,286047003.3,N
1526271375.5,286047005.7,Y
1526271395.4,286047004.1,P
1526271415.2,286047004.0,N
1526271435.0,286047002.6,N
1526271435.9,286047002.6,N
1526271455.8,286047000.0,N
1526271475.6,286047000.0,N
1526271495.5,286046998.7,N
1526271515.3,286046998.8,N
1526271535.1,286047000.4,N
1526271555.9,286046998.6,N
1526271575.7,286047002.0,N
1526271595.6,286047002.1,N
1526271615.4,286047000.9,N
1526271635.2,286046999.8,N
1526271655.1,286047001.7,N
1526271656.0,286047001.7,N
1526271675.8,286047001.9,N
1526271695.6,286047002.3,N
1526271715.5,286047002.4,N
1526271735.3,286047002.3,N
1526271755.2,286047000.3,N
1526271775.9,286047000.5,N
1526271795.7,286047000.4,N
1526271815.7,286046999.7,N
1526271835.5,286047000.6,N
1526271855.3,286046998.1,N
1526271875.2,286047000.3,N
1526271895.0,286047001.0,N
1526271895.9,286047001.0,N
1526271915.7,286046998.7,N
1526271935.6,286046998.5,N
1526271955.4,286047002.5,N
1526271975.3,286047003.7,N
1526271995.1,286047003.7,N
1526271996.0,286047003.7,N
1526272015.8,286047001.4,N
1526272035.7,286047002.8,N
1526272055.5,286047002.4,N
1526272075.3,286046999.8,N
1526272095.2,286047002.0,N
1526272115.0,286047004.1,N
1526272115.9,286047004.1,N
1526272135.8,286047003.1,N
1526272155.6,286047005.6,Y
1526272175.4,286047003.8,P
1526272195.3,286047003.2,N
1526272215.1,286047003.3,P
1526272235.9,286047004.8,Y
1526272255.7,286047004.4,P
1526272275.5,286047002.0,N
1526272295.4,286047003.8,P
1526272315.2,286047002.5,N
1526272335.1,286047000.0,N
1526272336.0,286047000.0,N
1526272355.8,286046999.8,N
1526272375.6,286046998.3,N
1526272395.5,286047000.2,N
1526272415.3,286047000.6,N
1526272435.1,286046999.7,N
1526272455.9,286046998.2,N
1526272475.7,286046999.8,N
1526272495.6,286046999.8,N
1526272515.4,286047000.1,N
1526272535.2,286046998.4,N
1526272555.1,286047000.5,N
1526272556.0,286047000.5,N
1526272575.8,286046996.5,N
1526272595.7,286046998.7,N
1526272615.5,286046999.5,N
1526272635.3,286046999.5,N
1526272655.2,286047000.5,N
1526272675.0,286047000.7,N
1526272675.9,286047000.7,N
1526272695.8,286046996.7,N
1526272715.6,286046995.3,N
1526272735.4,286046995.5,N
1526272755.3,286046996.7,N
1526272775.1,286046996.9,N
1526272795.8,286046996.6,N
1526272815.7,286046999.4,N
1526272835.5,286046999.3,N
1526272855.4,286046998.6,N
1526272875.2,286046998.6,N
1526272895.0,286046998.2,N
1526272895.9,286046998.2,N
1526272915.8,286047000.0,N
1526272935.6,286046999.1,N
1526272955.4,286046998.5,N
1526272975.3,286046996.9,N
1526272995.1,286046997.6,N
1526273015.9,286046997.8,N
1526273035.7,286046997.3,N
1526273055.5,286046997.5,N
1526273075.4,286046996.8,N
1526273095.2,286046997.7,N
1526273115.1,286046995.0,Y
1526273116.0,286046995.0,P
1526273135.8,286046999.6,N
1526273155.6,286046996.7,N
1526273175.5,286047000.0,N
1526273195.3,286046998.3,N
1526273215.1,286047000.2,N
1526273235.9,286046999.1,N
1526273255.7,286046998.9,N
1526273275.6,286046999.3,N
1526273295.4,286046999.4,N
1526273315.2,286046999.5,N
1526273335.1,286046999.1,N
1526273336.0,286046999.1,N
1526273355.8,286046998.3,N
1526273375.7,286046996.9,N
1526273395.5,286046999.2,N
1526273415.3,286046998.4,N
1526273435.2,286047000.5,N
1526273455.0,286047001.0,N
1526273455.9,286047001.0,N
1526273475.8,286047002.1,N
1526273495.6,286047002.5,N
1526273515.4,286047002.7,N
1526273535.3,286047001.9,N
1526273555.1,286047001.9,N
1526273575.9,286047001.7,N
1526273595.7,286047000.3,N
1526273615.5,286047002.8,N
1526273635.4,286046999.9,N
1526273655.2,286047000.0,N
1526273675.0,286047004.2,N
1526273676.0,286047004.2,N
1526273695.8,286047001.5,N
1526273715.6,286047000.0,N
1526273735.5,286047000.2,N
1526273755.3,286047000.3,N
1526273775.1,286047001.9,N
1526273795.9,286047001.9,N
1526273815.7,286047002.7,N
1526273835.6,286047001.9,N
1526273855.4,286047003.4,N
1526273875.2,286047005.8,Y
1526273895.1,286047004.5,P
1526273896.0,286047004.5,N
1526273915.8,286047004.5,N
1526273935.7,286047007.1,Y
1526273955.5,286047001.8,P
1526273975.3,286047002.5,N
1526273995.2,286047002.3,N
